Location: *
(41.7492°S, 135.4150°W)
Time: 19:11:16
(UTC+00:00)

Cosmos 2315 Rocket - Pass Details

Date: 20 September 2021
Orbit: 966 x 1002 km, 82.9° (Epoch: 16 October)

Event Time Altitude Azimuth Distance (km) Brightness Sun altitude
Rises 13:54:02 0° 190° (S) 3,713 7.0 -11.9°
Reaches altitude 10° 13:56:33 10° 191° (S) 2,764 6.4 -11.4°
Maximum altitude 14:02:53 76° 274° (W) 1,028 4.0 -10.3°
Drops below altitude 10° 14:09:12 10° 359° (N) 2,756 6.3 -9.1°
Sets 14:11:43 0° 0° (N) 3,702 7.0 -8.6°
